Regional Weather Roundup
Issued by NWS

Home | Current Version | Previous Version | Graphics & Text | Print | Product List | Glossary Off
Versions: 1 2 3 4 5 6 7 8 9 10 11 12 13 14 15 16 17 18 19 20 21 22 23 24 25 26 27 28 29 30 31 32 33 34 35 36 37 38 39 40 41 42 43 44 45 46 47 48 49 50

000
ASUS43 KTOP 212259
RWRKS

WEATHER ROUNDUP FOR KANSAS
NATIONAL WEATHER SERVICE GOODLAND KS
600 PM CDT SAT APR 21 2018

NOTE:  "FAIR" INDICATES FEW OR NO CLOUDS BELOW 12,000 FEET WITH NO
SIGNIFICANT WEATHER AND/OR OBSTRUCTIONS TO VISIBILITY.

KSZ001>006-013>018-027>032-041>047-220000-
NORTHWEST KANSAS

CITY           SKY/WX    TMP DP  RH WIND       PRES   REMARKS
GOODLAND       CLOUDY    41  37  86 N9        30.19R
HAYS           CLOUDY    45  43  93 NE12      30.17S
HILL CITY      CLOUDY    45  42  89 NE9       30.20R
RUSSELL        CLOUDY    46  46 100 NE9       30.15F
$$

KSZ061>065-074>080-084>089-220000-
SOUTHWEST KANSAS

CITY           SKY/WX    TMP DP  RH WIND       PRES   REMARKS
DODGE CITY     CLOUDY    46  42  86 N14       30.13R
GARDEN CITY    CLOUDY    45  41  87 N13       30.15R
GREAT BEND     CLOUDY    46  44  93 NE8       30.15S
LIBERAL        CLOUDY    48  42  80 N16       30.14R
$$

KSZ066>073-081>083-090>101-220000-
SOUTHEAST KANSAS

CITY           SKY/WX    TMP DP  RH WIND       PRES   REMARKS
CHANUTE        LGT RAIN  48  46  93 NW10      30.13R FOG
COFFEYVILLE    RAIN      49  48  97 NW12      30.13R FOG
HUTCHINSON     CLOUDY    46  44  93 NE13      30.14S
MEDICINE LODGE   N/A     47  45  93 NE8       30.12R
NEWTON         LGT RAIN  44  42  93 NE12      30.15R
PARSONS        RAIN      48  47  96 NW12      30.13R FOG
WICHITA INTL   LGT RAIN  45  44  97 NE13      30.12F
WICHITA JABRA  LGT RAIN  45  45 100 NE7       30.13S FOG
WICHITA MCCONL LGT RAIN  45  45  99 NE12      30.11F
WINFIELD       LGT RAIN  46  45  96 E10       30.11F
$$

KSZ007>012-019>026-033>040-048>060-102>105-220000-
NORTHEAST KANSAS

CITY           SKY/WX    TMP DP  RH WIND       PRES   REMARKS
CONCORDIA      CLOUDY    45  41  86 NE8       30.19R
EMPORIA        LGT RAIN  46  42  86 N7        30.15S FOG
LAWRENCE       CLOUDY    58  41  53 NW10      30.12R
MANHATTAN      LGT RAIN  49  45  86 E7        30.19R FOG
OLATHE IND     CLOUDY    64  35  34 E5        30.10F
OLATHE EXE     CLOUDY    62  35  36 E12       30.09F
SALINA         LGT RAIN  47  45  93 NE7       30.18S
TOPEKA BILLARD CLOUDY    52  44  74 NW13      30.14F
TOPEKA FORBES  CLOUDY    52  42  69 N12       30.13F
$$




USA.gov is the U.S. government's official web portal to all federal, state and local government web resources and services.